KC7FQC Weather Reports


Display with metric or nautical units.
time (UTC)temp
F
wind
direction
speed
MPH
gust
MPH
rain 1hr
in
rain 24hr
in
rain mn
in
humidity
%
barometer
mb
20200404022957 77 260 0.0 2.0 0.00 0.00 0.00 24 1004.5
20200404022441 77 260 1.0 3.0 0.00 0.00 0.00 24 1004.5
20200404021942 78 260 1.0 5.0 0.00 0.00 0.00 23 1004.5
20200404021442 78 260 0.0 5.0 0.00 0.00 0.00 23 1004.5
20200404020941 78 260 2.0 6.0 0.00 0.00 0.00 23 1004.5
20200404020442 78 259 4.0 6.0 0.00 0.00 0.00 22 1004.4
20200404015957 79 259 1.0 6.0 0.00 0.00 0.00 23 1004.4
20200404015442 79 259 4.0 6.0 0.00 0.00 0.00 22 1004.2
20200404014957 79 260 3.0 6.0 0.00 0.00 0.00 23 1004.2
20200404014442 79 260 1.0 8.0 0.00 0.00 0.00 22 1004.1
20200404013942 79 260 5.0 11.0 0.00 0.00 0.00 22 1004.1
20200404013442 80 252 4.0 11.0 0.00 0.00 0.00 22 1004.1
20200404012942 80 261 3.0 10.0 0.00 0.00 0.00 22 1004.0
20200404012457 80 254 4.0 10.0 0.00 0.00 0.00 21 1004.0
20200404011942 80 253 5.0 9.0 0.00 0.00 0.00 21 1003.9
20200404011442 81 245 7.0 9.0 0.00 0.00 0.00 21 1004.0
20200404010943 81 240 8.0 9.0 0.00 0.00 0.00 21 1004.0
20200404010442 81 254 5.0 12.0 0.00 0.00 0.00 21 1004.1
20200404005957 81 242 7.0 12.0 0.00 0.00 0.00 20 1004.1
20200404005457 82 261 6.0 12.0 0.00 0.00 0.00 20 1003.8
20200404004957 82 252 6.0 13.0 0.00 0.00 0.00 19 1004.0
20200404004457 82 229 4.0 13.0 0.00 0.00 0.00 19 1003.9
20200404003942 82 239 10.0 11.0 0.00 0.00 0.00 19 1003.8
20200404003457 83 228 3.0 14.0 0.00 0.00 0.00 19 1003.8
20200404002942 83 217 7.0 14.0 0.00 0.00 0.00 19 1003.9
20200404002457 83 265 10.0 13.0 0.00 0.00 0.00 19 1004.0
20200404001942 83 267 5.0 13.0 0.00 0.00 0.00 19 1004.1
20200404001443 83 250 13.0 13.0 0.00 0.00 0.00 19 1004.0
20200404000942 83 245 6.0 13.0 0.00 0.00 0.00 19 1004.0
20200404000457 84 222 9.0 13.0 0.00 0.00 0.00 18 1004.1
20200403235957 84 241 3.0 12.0 0.00 0.00 0.00 18 1004.1
20200403235442 84 221 6.0 13.0 0.00 0.00 0.00 18 1004.2
20200403234943 84 212 10.0 13.0 0.00 0.00 0.00 18 1004.2
20200403234441 84 254 9.0 13.0 0.00 0.00 0.00 18 1004.2
20200403233941 84 242 8.0 17.0 0.00 0.00 0.00 17 1004.2
20200403233441 84 241 6.0 17.0 0.00 0.00 0.00 17 1004.3
20200403232941 84 250 5.0 14.0 0.00 0.00 0.00 17 1004.2
20200403232457 84 214 1.0 8.0 0.00 0.00 0.00 19 1004.4
20200403231941 84 177 1.0 11.0 0.00 0.00 0.00 19 1004.4
20200403231457 84 225 7.0 13.0 0.00 0.00 0.00 19 1004.7
20200403230942 84 246 7.0 13.0 0.00 0.00 0.00 21 1004.7
20200403230441 85 221 7.0 13.0 0.00 0.00 0.00 20 1004.7
20200403225941 85 216 13.0 13.0 0.00 0.00 0.00 20 1004.6
20200403225457 85 225 9.0 13.0 0.00 0.00 0.00 19 1004.9
20200403224957 86 227 4.0 13.0 0.00 0.00 0.00 18 1005.0
20200403224442 86 216 5.0 13.0 0.00 0.00 0.00 19 1004.8
20200403223941 86 262 8.0 13.0 0.00 0.00 0.00 19 1005.0
20200403223441 86 221 7.0 11.0 0.00 0.00 0.00 20 1005.0
20200403222941 86 229 9.0 12.0 0.00 0.00 0.00 20 1005.0
20200403222441 86 216 6.0 17.0 0.00 0.00 0.00 20 1005.1
20200403221941 86 235 3.0 17.0 0.00 0.00 0.00 20 1005.1
20200403221457 86 217 17.0 17.0 0.00 0.00 0.00 20 1005.1
20200403220941 85 142 2.0 7.0 0.00 0.00 0.00 20 1005.1
20200403220442 85 150 2.0 10.0 0.00 0.00 0.00 20 1005.2
20200403215957 85 178 2.0 11.0 0.00 0.00 0.00 20 1005.5
20200403215441 86 175 7.0 11.0 0.00 0.00 0.00 19 1005.6
20200403214957 85 190 5.0 11.0 0.00 0.00 0.00 19 1005.8
20200403214457 86 205 2.0 11.0 0.00 0.00 0.00 19 1005.8
20200403213941 85 240 3.0 11.0 0.00 0.00 0.00 20 1005.7
20200403213457 84 159 5.0 11.0 0.00 0.00 0.00 20 1005.8
20200403212957 84 156 5.0 11.0 0.00 0.00 0.00 20 1005.7
20200403212457 85 172 7.0 13.0 0.00 0.00 0.00 19 1005.8
20200403211941 85 205 7.0 13.0 0.00 0.00 0.00 19 1005.9
20200403211457 86 224 2.0 10.0 0.00 0.00 0.00 19 1005.9
20200403210957 85 220 3.0 13.0 0.00 0.00 0.00 19 1006.0
20200403210441 85 215 7.0 16.0 0.00 0.00 0.00 19 1006.1
20200403205957 85 190 4.0 16.0 0.00 0.00 0.00 19 1006.1
20200403205441 85 192 0.0 8.0 0.00 0.00 0.00 19 1006.4
20200403204941 85 198 6.0 12.0 0.00 0.00 0.00 19 1006.6
20200403204457 86 223 6.0 12.0 0.00 0.00 0.00 19 1006.8
20200403203941 85 232 3.0 10.0 0.00 0.00 0.00 19 1006.8
20200403203441 86 160 1.0 9.0 0.00 0.00 0.00 20 1007.0
20200403202941 87 199 1.0 9.0 0.00 0.00 0.00 18 1006.9
20200403202457 87 269 5.0 10.0 0.00 0.00 0.00 18 1006.9
20200403201957 87 212 4.0 10.0 0.00 0.00 0.00 18 1007.1
20200403201442 87 171 7.0 7.0 0.00 0.00 0.00 18 1007.3
20200403200957 87 198 4.0 7.0 0.00 0.00 0.00 18 1007.3
20200403200458 86 198 1.0 7.0 0.00 0.00 0.00 19 1007.3
20200403195942 86 198 0.0 8.0 0.00 0.00 0.00 18 1007.4
20200403195457 86 149 3.0 10.0 0.00 0.00 0.00 18 1007.7
20200403194957 87 229 1.0 10.0 0.00 0.00 0.00 18 1007.6
20200403194457 87 204 3.0 9.0 0.00 0.00 0.00 18 1007.9
20200403193941 86 242 2.0 9.0 0.00 0.00 0.00 18 1008.0
20200403193441 85 234 0.0 9.0 0.00 0.00 0.00 20 1008.0
20200403192957 84 159 3.0 8.0 0.00 0.00 0.00 19 1008.0
20200403192441 84 160 5.0 9.0 0.00 0.00 0.00 19 1008.1
20200403191941 84 171 2.0 9.0 0.00 0.00 0.00 18 1008.2
20200403191441 84 176 2.0 8.0 0.00 0.00 0.00 18 1008.2
20200403190941 84 165 2.0 8.0 0.00 0.00 0.00 18 1008.3
20200403190441 84 175 2.0 8.0 0.00 0.00 0.00 19 1008.5
20200403185957 84 161 3.0 8.0 0.00 0.00 0.00 18 1008.5
20200403185441 83 217 1.0 9.0 0.00 0.00 0.00 19 1008.6
20200403184957 83 213 6.0 9.0 0.00 0.00 0.00 20 1008.7
20200403184457 82 159 2.0 7.0 0.00 0.00 0.00 19 1008.7
20200403183941 83 179 3.0 10.0 0.00 0.00 0.00 20 1009.0
20200403183457 82 148 6.0 10.0 0.00 0.00 0.00 19 1009.0
20200403182942 83 205 0.0 7.0 0.00 0.00 0.00 19 1009.0
20200403182456 84 212 4.0 7.0 0.00 0.00 0.00 19 1009.2
20200403181957 83 149 1.0 5.0 0.00 0.00 0.00 19 1009.2
20200403181441 82 149 0.0 5.0 0.00 0.00 0.00 21 1009.2
20200403180941 81 167 3.0 7.0 0.00 0.00 0.00 21 1009.3
20200403180441 80 169 2.0 7.0 0.00 0.00 0.00 22 1009.5
20200403175941 79 157 0.0 9.0 0.00 0.00 0.00 22 1009.3
20200403175457 80 168 5.0 9.0 0.00 0.00 0.00 22 1009.5
20200403174942 79 173 5.0 8.0 0.00 0.00 0.00 24 1009.5
20200403174457 79 150 5.0 8.0 0.00 0.00 0.00 24 1009.6
20200403173941 79 133 3.0 6.0 0.00 0.00 0.00 24 1009.6
20200403173441 78 133 3.0 9.0 0.00 0.00 0.00 25 1009.7
20200403172941 78 108 3.0 9.0 0.00 0.00 0.00 24 1009.7
20200403172456 78 180 2.0 5.0 0.00 0.00 0.00 25 1009.7
20200403171941 78 181 1.0 5.0 0.00 0.00 0.00 25 1009.8
20200403171441 77 181 0.0 5.0 0.00 0.00 0.00 26 1009.7
20200403170942 77 182 3.0 5.0 0.00 0.00 0.00 27 1009.7
20200403170457 76 182 1.0 5.0 0.00 0.00 0.00 28 1009.8
20200403165957 76 182 2.0 5.0 0.00 0.00 0.00 28 1009.7
20200403165441 76 182 3.0 5.0 0.00 0.00 0.00 28 1010.0
20200403164941 75 183 0.0 4.0 0.00 0.00 0.00 29 1009.8
20200403164456 75 183 0.0 4.0 0.00 0.00 0.00 30 1009.9
20200403163941 75 183 2.0 3.0 0.00 0.00 0.00 30 1010.1
20200403163457 74 183 2.0 6.0 0.00 0.00 0.00 30 1010.1
20200403162941 73 183 0.0 6.0 0.00 0.00 0.00 31 1009.9
20200403162457 73 184 0.0 4.0 0.00 0.00 0.00 31 1009.9
20200403161957 73 184 2.0 4.0 0.00 0.00 0.00 31 1009.9
20200403161441 73 185 3.0 4.0 0.00 0.00 0.00 31 1009.9
20200403160941 73 186 1.0 3.0 0.00 0.00 0.00 32 1009.9
20200403160441 72 186 1.0 3.0 0.00 0.00 0.00 32 1010.0
20200403155941 72 186 3.0 3.0 0.00 0.00 0.00 31 1009.9
20200403155456 73 187 1.0 3.0 0.00 0.00 0.00 32 1010.1
20200403154941 72 187 0.0 2.0 0.00 0.00 0.00 34 1010.0
20200403154441 71 187 0.0 2.0 0.00 0.00 0.00 35 1010.0
20200403153941 70 187 0.0 0.0 0.00 0.00 0.00 36 1009.9
20200403153457 69 187 0.0 0.0 0.00 0.00 0.00 37 1009.8
20200403152941 69 187 0.0 0.0 0.00 0.00 0.00 39 1009.8
20200403152441 68 187 0.0 2.0 0.00 0.00 0.00 40 1009.7
20200403151957 67 187 0.0 2.0 0.00 0.00 0.00 42 1009.8
20200403151457 66 187 0.0 2.0 0.00 0.00 0.00 43 1009.6
20200403150941 65 187 0.0 4.0 0.00 0.00 0.00 44 1009.7
20200403150457 64 187 0.0 4.0 0.00 0.00 0.00 44 1009.6
20200403145941 64 188 1.0 3.0 0.00 0.00 0.00 45 1009.7
20200403145456 63 188 0.0 2.0 0.00 0.00 0.00 46 1009.7
20200403144956 63 188 0.0 2.0 0.00 0.00 0.00 48 1009.7
20200403144457 62 188 0.0 0.0 0.00 0.00 0.00 48 1009.6
20200403143957 62 188 0.0 4.0 0.00 0.00 0.00 49 1009.5
20200403143457 61 188 0.0 4.0 0.00 0.00 0.00 49 1009.5
20200403142941 61 188 3.0 3.0 0.00 0.00 0.00 50 1009.5
20200403142456 60 188 0.0 3.0 0.00 0.00 0.00 52 1009.3
20200403141956 59 188 0.0 0.0 0.00 0.00 0.00 53 1009.3
20200403141441 59 188 0.0 2.0 0.00 0.00 0.00 55 1009.3
20200403140941 58 188 0.0 3.0 0.00 0.00 0.00 54 1009.2
20200403140456 58 188 2.0 4.0 0.00 0.00 0.00 54 1009.1
20200403135957 57 188 3.0 4.0 0.00 0.00 0.00 55 1009.1
20200403135441 57 188 1.0 3.0 0.00 0.00 0.00 57 1009.1
20200403134956 56 188 0.0 0.0 0.00 0.00 0.00 58 1009.0
20200403134441 56 221 0.0 0.0 0.00 0.00 0.00 58 1009.0
20200403133941 56 221 0.0 3.0 0.00 0.00 0.00 59 1009.0
20200403133456 55 221 0.0 3.0 0.00 0.00 0.00 59 1008.8
20200403132957 55 221 0.0 0.0 0.00 0.00 0.00 60 1008.7
20200403132456 55 221 0.0 2.0 0.00 0.00 0.00 60 1008.6
20200403131941 55 221 0.0 2.0 0.00 0.00 0.00 61 1008.4
20200403131457 55 221 0.0 0.0 0.00 0.00 0.00 61 1008.6
20200403130941 55 221 0.0 0.0 0.00 0.00 0.00 61 1008.5
20200403130456 55 221 0.0 0.0 0.00 0.00 0.00 61 1008.3
20200403125941 55 221 0.0 0.0 0.00 0.00 0.00 62 1008.4
20200403125441 55 221 0.0 0.0 0.00 0.00 0.00 62 1008.7
20200403124941 55 221 0.0 0.0 0.00 0.00 0.00 61 1008.6
20200403124456 55 221 0.0 0.0 0.00 0.00 0.00 61 1008.6
20200403123941 55 221 0.0 0.0 0.00 0.00 0.00 61 1008.6
20200403123457 55 221 0.0 0.0 0.00 0.00 0.00 61 1008.5
20200403122942 55 221 0.0 0.0 0.00 0.00 0.00 61 1008.4
20200403122442 55 221 0.0 0.0 0.00 0.00 0.00 61 1008.3
20200403121942 55 221 0.0 0.0 0.00 0.00 0.00 61 1008.3
20200403121442 55 221 0.0 0.0 0.00 0.00 0.00 62 1008.1
20200403120956 55 221 0.0 0.0 0.00 0.00 0.00 61 1008.2
20200403120441 55 221 0.0 0.0 0.00 0.00 0.00 61 1008.1
20200403115941 55 221 0.0 0.0 0.00 0.00 0.00 61 1008.0
20200403115441 56 221 0.0 0.0 0.00 0.00 0.00 61 1008.0
20200403114942 56 221 0.0 0.0 0.00 0.00 0.00 61 1008.0
20200403114457 56 221 0.0 0.0 0.00 0.00 0.00 61 1008.0
20200403113941 56 221 0.0 0.0 0.00 0.00 0.00 61 1008.0
20200403113456 56 221 0.0 0.0 0.00 0.00 0.00 61 1008.0
20200403112956 56 221 0.0 0.0 0.00 0.00 0.00 61 1008.0
20200403112441 56 221 0.0 0.0 0.00 0.00 0.00 61 1007.9
20200403111956 56 221 0.0 2.0 0.00 0.00 0.00 62 1007.9
20200403111456 56 221 0.0 2.0 0.00 0.00 0.00 62 1008.0
20200403110941 56 221 0.0 2.0 0.00 0.00 0.00 62 1008.0
20200403110456 56 221 0.0 2.0 0.00 0.00 0.00 62 1008.1
20200403105941 56 221 0.0 2.0 0.00 0.00 0.00 62 1008.1
20200403105456 56 221 0.0 2.0 0.00 0.00 0.00 62 1008.1
20200403104956 56 221 0.0 0.0 0.00 0.00 0.00 62 1008.2
20200403104456 56 221 0.0 0.0 0.00 0.00 0.00 61 1008.3
20200403103941 56 221 0.0 0.0 0.00 0.00 0.00 61 1008.3
20200403103441 56 221 0.0 0.0 0.00 0.00 0.00 60 1008.4
20200403102941 56 221 0.0 0.0 0.00 0.00 0.00 61 1008.3
20200403102456 56 221 0.0 3.0 0.00 0.00 0.00 60 1008.4
20200403101941 56 221 0.0 3.0 0.00 0.00 0.00 60 1008.4
20200403101441 57 221 0.0 0.0 0.00 0.00 0.00 60 1008.5
20200403100956 57 221 0.0 0.0 0.00 0.00 0.00 60 1008.5
20200403100441 57 221 0.0 0.0 0.00 0.00 0.00 59 1008.3
20200403095957 57 221 0.0 1.0 0.00 0.00 0.00 59 1008.4
20200403095456 57 221 0.0 2.0 0.00 0.00 0.00 59 1008.4
20200403094941 57 221 1.0 2.0 0.00 0.00 0.00 59 1008.6
20200403094441 57 221 0.0 0.0 0.00 0.00 0.00 59 1008.6
20200403093957 58 221 0.0 0.0 0.00 0.00 0.00 58 1008.5
20200403093441 58 221 0.0 0.0 0.00 0.00 0.00 56 1008.4
20200403092956 58 221 0.0 0.0 0.00 0.00 0.00 57 1008.4
20200403092456 58 221 0.0 0.0 0.00 0.00 0.00 57 1008.5
20200403091941 58 221 0.0 0.0 0.00 0.00 0.00 56 1008.5
20200403091441 58 221 0.0 0.0 0.00 0.00 0.00 56 1008.5
20200403090956 58 221 0.0 0.0 0.00 0.00 0.00 55 1008.4
20200403090441 59 221 0.0 0.0 0.00 0.00 0.00 54 1008.3
20200403085941 59 221 0.0 0.0 0.00 0.00 0.00 53 1008.2
20200403085441 59 221 0.0 0.0 0.00 0.00 0.00 53 1008.2
20200403084956 59 221 0.0 0.0 0.00 0.00 0.00 53 1008.2
20200403084441 60 221 0.0 0.0 0.00 0.00 0.00 51 1008.3
20200403083941 60 221 0.0 0.0 0.00 0.00 0.00 50 1008.3
20200403083457 60 221 0.0 0.0 0.00 0.00 0.00 50 1008.3
20200403082941 60 221 0.0 0.0 0.00 0.00 0.00 50 1008.4
20200403082441 60 221 0.0 0.0 0.00 0.00 0.00 49 1008.4
20200403081956 61 221 0.0 0.0 0.00 0.00 0.00 50 1008.2
20200403081456 61 221 0.0 0.0 0.00 0.00 0.00 47 1008.2
20200403080941 61 221 0.0 0.0 0.00 0.00 0.00 47 1008.4
20200403080456 62 221 0.0 0.0 0.00 0.00 0.00 47 1008.5
20200403075941 62 221 0.0 0.0 0.00 0.00 0.00 46 1008.3
20200403075456 62 221 0.0 0.0 0.00 0.00 0.00 45 1008.2
20200403074941 63 221 0.0 0.0 0.00 0.00 0.00 44 1008.3
20200403074441 63 221 0.0 0.0 0.00 0.00 0.00 43 1008.3
20200403073956 63 221 0.0 0.0 0.00 0.00 0.00 44 1008.3
20200403073441 63 221 0.0 0.0 0.00 0.00 0.00 43 1008.3
20200403072941 63 221 0.0 0.0 0.00 0.00 0.00 42 1008.2
20200403072441 63 221 0.0 0.0 0.00 0.00 0.00 42 1008.3
20200403071941 64 221 0.0 0.0 0.00 0.00 0.00 42 1008.5
20200403071456 64 221 0.0 0.0 0.00 0.00 0.00 41 1008.5
20200403070941 64 221 0.0 0.0 0.00 0.00 0.00 41 1008.5
20200403070441 64 221 0.0 0.0 0.00 0.00 0.00 40 1008.6
20200403065941 64 221 0.0 0.0 0.00 0.00 0.00 40 1008.3
20200403065456 65 221 0.0 0.0 0.00 0.00 0.00 39 1008.5
20200403064941 65 221 0.0 1.0 0.00 0.00 0.00 38 1008.4
20200403064456 65 221 0.0 3.0 0.00 0.00 0.00 37 1008.4
20200403063941 65 221 1.0 3.0 0.00 0.00 0.00 37 1008.5
20200403063441 65 221 1.0 3.0 0.00 0.00 0.00 37 1008.4
20200403062941 65 221 0.0 4.0 0.00 0.00 0.00 36 1008.2
20200403062441 66 221 0.0 4.0 0.00 0.00 0.00 36 1008.3
20200403061941 66 221 0.0 4.0 0.00 0.00 0.00 37 1008.3
20200403061441 66 221 1.0 4.0 0.00 0.00 0.00 36 1008.2
20200403060941 66 221 1.0 4.0 0.00 0.00 0.00 37 1008.2
20200403060456 66 221 0.0 2.0 0.00 0.00 0.00 37 1008.3
20200403055956 67 221 0.0 2.0 0.00 0.00 0.00 37 1008.4
20200403055442 67 221 0.0 3.0 0.00 0.00 0.00 36 1008.4
20200403054941 67 221 0.0 3.0 0.00 0.00 0.00 36 1008.4
20200403054456 67 221 0.0 0.0 0.00 0.00 0.00 36 1008.4
20200403053957 68 221 0.0 0.0 0.00 0.00 0.00 35 1008.3
20200403053441 68 221 0.0 0.0 0.00 0.00 0.00 35 1008.3
20200403052957 69 221 0.0 0.0 0.00 0.00 0.00 35 1008.2
20200403052456 69 221 0.0 0.0 0.00 0.00 0.00 35 1008.2
20200403051956 69 221 0.0 0.0 0.00 0.00 0.00 34 1008.2
20200403051441 70 221 0.0 0.0 0.00 0.00 0.00 34 1008.3
20200403050941 70 221 0.0 3.0 0.00 0.00 0.00 33 1008.2
20200403050441 70 221 0.0 3.0 0.00 0.00 0.00 33 1008.3
20200403045956 70 221 1.0 3.0 0.00 0.00 0.00 33 1008.2
20200403045441 70 221 0.0 1.0 0.00 0.00 0.00 33 1008.2
20200403044956 71 221 0.0 0.0 0.00 0.00 0.00 32 1008.1
20200403044456 71 221 0.0 0.0 0.00 0.00 0.00 32 1008.0
20200403043941 71 221 0.0 0.0 0.00 0.00 0.00 32 1007.9
20200403043441 72 221 0.0 1.0 0.00 0.00 0.00 31 1007.9
20200403042941 72 221 0.0 3.0 0.00 0.00 0.00 30 1007.9
20200403042440 72 221 0.0 4.0 0.00 0.00 0.00 30 1007.8
20200403041956 72 221 0.0 4.0 0.00 0.00 0.00 30 1007.7
20200403041440 72 221 0.0 5.0 0.00 0.00 0.00 29 1007.8
20200403040956 72 221 1.0 6.0 0.00 0.00 0.00 29 1007.6
20200403040456 73 221 5.0 6.0 0.00 0.00 0.00 28 1007.7
20200403035956 73 221 0.0 3.0 0.00 0.00 0.00 28 1007.7
20200403035441 73 221 1.0 5.0 0.00 0.00 0.00 27 1007.7
20200403034956 74 221 1.0 5.0 0.00 0.00 0.00 27 1007.6
20200403034456 74 221 2.0 4.0 0.00 0.00 0.00 26 1007.5
20200403033941 74 221 0.0 6.0 0.00 0.00 0.00 26 1007.6
20200403033457 74 221 3.0 6.0 0.00 0.00 0.00 25 1007.3
20200403032940 74 221 1.0 7.0 0.00 0.00 0.00 25 1007.1
20200403032441 74 221 1.0 7.0 0.00 0.00 0.00 25 1007.1
20200403031941 74 219 1.0 7.0 0.00 0.00 0.00 25 1006.9
20200403031441 74 220 3.0 7.0 0.00 0.00 0.00 25 1006.9
20200403030956 74 220 4.0 6.0 0.00 0.00 0.00 25 1006.9
20200403030441 75 220 4.0 6.0 0.00 0.00 0.00 25 1007.0
20200403025956 75 220 2.0 4.0 0.00 0.00 0.00 25 1007.0
20200403025456 75 220 3.0 6.0 0.00 0.00 0.00 25 1006.4
20200403024940 75 220 4.0 6.0 0.00 0.00 0.00 24 1006.3
20200403024440 76 220 2.0 5.0 0.00 0.00 0.00 24 1006.5
20200403023956 76 220 4.0 5.0 0.00 0.00 0.00 24 1006.4
20200403023441 76 220 5.0 6.0 0.00 0.00 0.00 24 1006.4